{"data":{"norad_id":66993,"epoch":"2026-05-25T04:37:38.607744Z","epoch_age_seconds":65302,"freshness":"FRESH","line1":"1 66993U 25292A   26145.19280796  .00003373  00000+0  23438-3 0  9991","line2":"2 66993  97.6318 221.1193 0016750  79.6524 280.6590 15.06098125 24980","mean_motion":15.06098125,"eccentricity":0.001675,"inclination_deg":97.6318,"raan_deg":221.1193,"arg_perigee_deg":79.6524,"mean_anomaly_deg":280.659,"bstar":0.00023438,"rev_number":2498,"period_min":95.611300226537,"perigee_km":536.53540705885,"apogee_km":559.73842467701,"semimajor_km":6926.2739158679,"source":"CELESTRAK","updated_at":"2026-05-25T13:38:06.637613Z"}}